• Processing (Info)

  • MPEC 2014-E22 : 2014 DX110

    The following Minor Planet Electronic Circular may be linked-to from your own Web pages, but must not otherwise be redistributed electronically.

    A form allowing access to any MPEC is at the bottom of this page.


    Read MPEC 2014-E21 Read MPEC 2014-E23


    M.P.E.C. 2014-E22                                Issued 2014 Mar. 2, 18:50 UT
    
         The Minor Planet Electronic Circulars contain information on unusual
             minor planets and routine data on comets.  They are published
       on behalf of Commission 20 of the International Astronomical Union by the
              Minor Planet Center, Smithsonian Astrophysical Observatory,
                              Cambridge, MA 02138, U.S.A.
    
                 Prepared using the Tamkin Foundation Computer Network
    
                                  MPC@CFA.HARVARD.EDU
                URL http://www.minorplanetcenter.net/    ISSN 1523-6714
    
                                      2014 DX110
    
    Observations:
         K14DB0X* C2014 02 28.36199 09 34 13.259+02 12 58.11         19.9 wLEE022F51
         K14DB0X  C2014 02 28.37465 09 34 11.900+02 13 20.64         19.9 wLEE022F51
         K14DB0X  C2014 02 28.38633 09 34 10.633+02 13 41.46         20.0 wLEE022F51
         K14DB0X  C2014 02 28.39801 09 34 09.361+02 14 02.39         20.2 wLEE022F51
         K14DB0X  C2014 03 01.02239709 33 36.98 +02 38 13.5          20.1 VqEE022K93
         K14DB0X  C2014 03 01.02343209 33 36.90 +02 38 16.1          20.2 VqEE022K93
         K14DB0X  C2014 03 01.02446009 33 36.79 +02 38 18.1          20.4 VqEE022K93
         K14DB0X  C2014 03 01.02549109 33 36.70 +02 38 20.7          20.0 VqEE022K93
         K14DB0X  C2014 03 01.02651909 33 36.59 +02 38 22.9          19.9 VqEE022K93
         K14DB0X  C2014 03 01.02859009 33 36.41 +02 38 27.9          19.7 VqEE022K93
         K14DB0X  C2014 03 01.02963509 33 36.28 +02 38 30.2          19.6 VqEE022K93
         K14DB0X  C2014 03 01.03066209 33 36.18 +02 38 32.4          20.2 VqEE022K93
         K14DB0X  C2014 03 01.03169409 33 36.09 +02 38 34.8          19.9 VqEE022K93
         K14DB0X  C2014 03 01.03272309 33 35.98 +02 38 37.3          19.9 VqEE022K93
         K14DB0X KC2014 03 02.02430 09 32 48.82 +03 21 39.3          19.5 RqEE022J95
         K14DB0X KC2014 03 02.03580 09 32 47.32 +03 22 20.4          19.1 RqEE022J95
    
    Observer details:
    F51 Pan-STARRS 1, Haleakala.  Observers N. Primak, A. Schultz, T. Goggia,
        M. Willman.  Measurer PS1 Science Consortium.  1.8-m Ritchey-Chretien
        + CCD.
    J95 Great Shefford.  Observer P. Birtwhistle.  0.40-m f/6.0 Schmidt-Cassegrain
        + CCD.
    K93 Sutherland-LCOGT C.  Observer T. Lister.  1.0-m f/8 Ritchey-Chretien + CCD.
    
    Orbital elements:
    2014 DX110                                               Earth MOID = 0.0016 AU
    Epoch 2013 Nov. 4.0 TT = JDT 2456600.5                  MPC
    M 310.94490              (2000.0)            P               Q
    n   0.30699280     Peri.   56.83325     -0.75659252     +0.65325168
    a   2.1762925      Node   163.89190     -0.62918018     -0.71530170
    e   0.6205417      Incl.    5.96018     -0.17804509     -0.24820499
    P   3.21           H   25.7           G   0.15           U   5
    Residuals in seconds of arc
    140228 F51  0.0   0.0     140301 K93  0.1-  0.1-    140301 K93  0.1-  0.1-
    140228 F51  0.0   0.0     140301 K93  0.1+  0.1+    140301 K93  0.2-  0.0
    140228 F51  0.1-  0.0     140301 K93  0.1-  0.1-    140302 J95  0.2+  0.3+
    140228 F51  0.0   0.0     140301 K93  0.3+  0.2+    140302 J95  0.3-  0.2-
    140301 K93  0.3-  0.0     140301 K93  0.2-  0.0
    140301 K93  0.1+  0.2+    140301 K93  0.2-  0.1-
    
    Ephemeris:
    2014 DX110               a,e,i = 2.18, 0.62, 6                   q = 0.8258
    Date    TT    R. A. (2000) Decl.     Delta      r     Elong.  Phase     V
    2014 01 31    09 39 07.8 +01 19 32   0.3155  1.2865   160.3    15.0    24.6
    ...
    2014 02 15    09 37 56.6 +00 38 39   0.1660  1.1502   167.2    10.9    22.8
    ...
    2014 02 23    09 36 11.9 +00 57 06   0.09390 1.0804   165.1    13.6    21.5
    ...
    2014 03 01    09 33 46.3 +02 35 22   0.04185 1.0305   161.2    18.1    19.8
    2014 03 02    09 32 54.8 +03 23 25   0.03328 1.0224   160.3    19.0    19.3
    2014 03 03    09 31 33.0 +04 44 57   0.02475 1.0145   159.4    20.2    18.7
    ...
    2014 03 09    21 40 29.2 +04 51 35   0.02676 0.9687    25.8   153.5    26.9
    ...
    2014 03 17    21 38 49.4 +01 14 00   0.09582 0.9149    31.9   145.0    28.0
    ...
    2014 04 01    21 48 42.2 +00 23 33   0.2318  0.8448    43.1   126.1    27.5
    
    A. U. Tomatic                (C) Copyright 2014 MPC           M.P.E.C. 2014-E22
    

    Read MPEC 2014-E21 Read MPEC 2014-E23


    MPEC number:

    Enter an MPEC number in one of the following forms:

    • 1997-B01 (the full form)
    • J97B01 (the packed version of the full form)
    • B01 (the abbreviated form)